Regional Weather Roundup
Issued by NWS

Home | Current Version | Previous Version | Graphics & Text | Print | Product List | Glossary On
Versions: 1 2 3 4 5 6 7 8 9 10 11 12 13 14 15 16 17 18 19 20 21 22 23 24 25 26 27 28 29 30 31 32 33 34 35 36 37 38 39 40 41 42 43 44 45 46 47 48 49 50
000
ASUS43 KOAX 071902
RWRNE

WEATHER ROUNDUP FOR NEBRASKA
NATIONAL WEATHER SERVICE OMAHA NE
100 PM CST SUN FEB 07 2016

NOTES: SATELLITE DATA IS BEING USED TO AUGMENT CLOUD COVER ABOVE
       12000 FEET.
       "FAIR" INDICATES FEW OR NO CLOUDS BELOW 12,000 FEET WITH NO
       SIGNIFICANT WEATHER AND/OR OBSTRUCTIONS TO VISIBILITY.

  * THESE STATIONS DO NOT REPORT WEATHER SUCH AS RAIN...SNOW OR FOG.

NEZ001>004-019>022-054>056-072000-
NEBRASKA PANHANDLE

CITY           SKY/WX    TMP DP  RH WIND       PRES   REMARKS
SCOTTSBLUFF    CLOUDY    34  15  46 NW30G40   30.31F WCI  20
ALLIANCE       SUNNY     33  16  49 NW26G39   30.23F WCI  20
CHADRON        SUNNY     38  14  37 NW29G45   30.25S WCI  26
KIMBALL        CLOUDY    30  21  68 NW22G31   30.30F WCI  17
SIDNEY         CLOUDY    34  20  56 NW29G36   30.28F WCI  20
$$

NEZ057>060-069>072-079>082-072000-
SOUTHWEST NEBRASKA

CITY           SKY/WX    TMP DP  RH WIND       PRES   REMARKS
NORTH PLATTE   SUNNY     39  18  42 NW29G40   30.17F WCI  27
IMPERIAL       MOSUNNY   37  24  59 NW20G28   30.26F WCI  27
MCCOOK         CLOUDY    39  25  57 W23G31    30.23F WCI  28
$$

NEZ005>010-023>029-035>040-094-072000-
NORTH CENTRAL NEBRASKA

CITY           SKY/WX    TMP DP  RH WIND       PRES   REMARKS
VALENTINE      CLOUDY    37  17  44 NW35G52   30.05F WCI  24
AINSWORTH      CLOUDY    38  15  39 NW38G52   30.05F WCI  24
BROKEN BOW     MOSUNNY   41  16  36 NW33G48   30.09F
ORD            CLOUDY    40  16  37 NW37G49   30.04F WCI  27
$$

NEZ041-046>049-061>064-073>077-083>087-072000-
SOUTH CENTRAL NEBRASKA

CITY           SKY/WX    TMP DP  RH WIND       PRES   REMARKS
GRAND ISLAND   SUNNY     42  19  39 NW30G40   30.07F
HASTINGS       SUNNY     41  24  51 W20       30.09F
HEBRON         MOSUNNY   42  25  50 W16G23    30.11F
$$

NEZ011>018-030>034-042>045-072000-
NORTHEAST NEBRASKA

CITY           SKY/WX    TMP DP  RH WIND       PRES   REMARKS
NORFOLK        CLOUDY    41  20  43 NW29G43   29.94F
COLUMBUS *     PTSUNNY   43  19  39 W22G29    30.00F
FREMONT        SUNNY     41  25  52 W22G29    29.97F
TEKAMAH        MOSUNNY   42  25  50 W22G32    29.94F
$$

NEZ050>053-065>068-078-088>093-072000-
SOUTHEAST NEBRASKA

CITY           SKY/WX    TMP DP  RH WIND       PRES   REMARKS
LINCOLN        SUNNY     43  26  51 W16       30.03F
OMAHA EPPLEY   MOSUNNY   44  25  47 W21G29    29.96F
BEATRICE       SUNNY     44  30  57 W20G28    30.06F
FALLS CITY     MOSUNNY   48  27  44 NW28G33   30.03F
$$

NEZ044-045-051>053-067-072000-
OMAHA AREA

CITY           SKY/WX    TMP DP  RH WIND       PRES   REMARKS
OMAHA EPPLEY   MOSUNNY   44  25  47 W21G29    29.96F
FREMONT        SUNNY     41  25  52 W22G29    29.97F
OFFUTT AFB     SUNNY     44  26  49 W17G26    29.96F
WAHOO          FAIR      42  25  50 W22G31    29.98F
$$



USA.gov is the U.S. government's official web portal to all federal, state and local government web resources and services.